K5LUO Weather Reports


time (UTC)temp
F
wind
direction
speed
knots
gust
knots
rain 1hr
in
rain 24hr
in
rain mn
in
humidity
%
barometer
mb
20260506061507 49 29 5.2 18.2 0.00 0.00 0.00 73 1012.4
20260506060104 49 41 8.7 18.2 0.00 0.00 0.00 74 1012.2
20260506044626 50 355 7.0 13.9 0.00 0.00 0.00 78 1012.3
20260506043052 50 36 8.7 16.5 0.00 0.00 0.00 78 1012.3
20260506041537 50 49 8.7 13.9 0.00 0.00 0.00 78 1012.5
20260506040127 50 15 8.7 15.6 0.00 0.00 0.00 79 1012.4
20260506034607 50 342 5.2 11.3 0.00 0.00 0.00 79 1012.1
20260506033010 50 43 6.1 15.6 0.00 0.00 0.00 78 1012.2
20260506031613 50 16 5.2 13.9 0.00 0.00 0.00 78 1011.8
20260506030042 50 17 11.3 18.2 0.00 0.00 0.00 77 1011.6
20260506024620 50 15 7.0 15.6 0.00 0.00 0.00 77 1010.8
20260506023043 50 343 12.2 19.1 0.00 0.00 0.00 77 1010.9
20260506021633 50 44 7.0 17.4 0.00 0.00 0.00 77 1010.6
20260506020055 51 355 7.8 13.0 0.00 0.00 0.00 77 1010.4
20260506014519 51 17 9.6 19.1 0.00 0.00 0.00 77 1010.4
20260506013111 51 26 11.3 16.5 0.00 0.00 0.00 76 1010.1
20260506011536 52 18 7.8 16.5 0.00 0.00 0.00 75 1009.8
20260506010124 52 22 6.1 16.5 0.00 0.00 0.00 75 1009.3
20260506004551 52 48 7.8 18.2 0.00 0.00 0.00 75 1009.0
20260506003022 52 28 7.8 18.2 0.00 0.00 0.00 75 1008.8
20260506001603 53 355 9.6 17.4 0.00 0.00 0.00 76 1008.8
20260506000024 53 51 10.4 15.6 0.00 0.00 0.00 76 1008.8
20260505234623 53 360 9.6 16.5 0.00 0.00 0.00 75 1008.8
20260505233043 53 19 5.2 15.6 0.00 0.00 0.00 76 1008.6
20260505231502 53 355 7.0 18.2 0.00 0.00 0.00 75 1008.2
20260505230053 54 10 9.6 17.4 0.00 0.00 0.00 75 1008.5
20260505224508 54 347 10.4 18.2 0.00 0.00 0.00 76 1008.4
20260505223100 55 342 9.6 13.0 0.00 0.00 0.00 77 1007.8
20260505221547 54 15 8.7 16.5 0.00 0.00 0.00 77 1007.3
20260505220013 55 19 11.3 21.7 0.00 0.00 0.00 77 1006.8
20260505214613 55 360 11.3 20.9 0.00 0.00 0.00 77 1006.8
20260505213023 55 16 7.8 13.0 0.00 0.00 0.00 80 1006.6
20260505211618 55 337 11.3 20.0 0.00 0.00 0.00 80 1006.9
20260505210035 55 355 12.2 18.2 0.00 0.00 0.00 81 1006.8
20260505204505 56 40 8.7 15.6 0.00 0.00 0.00 81 1006.6
20260505203059 56 9 11.3 21.7 0.00 0.00 0.00 82 1006.5
20260505201521 56 16 12.2 20.0 0.00 0.00 0.00 82 1006.3
20260505200101 56 346 13.0 21.7 0.00 0.00 0.00 81 1006.4
20260505194529 57 18 12.2 22.6 0.00 0.00 0.00 81 1006.0
20260505193132 57 355 13.0 20.9 0.00 0.00 0.00 81 1006.1
20260505191542 58 360 10.4 18.2 0.00 0.00 0.00 81 1004.8
20260505190000 58 327 14.8 20.0 0.00 0.00 0.00 81 1005.5
20260505184603 58 5 10.4 20.0 0.00 0.00 0.00 81 1005.0
20260505183021 58 335 13.0 21.7 0.00 0.00 0.00 80 1004.9
20260505181607 60 9 10.4 22.6 0.00 0.00 0.00 79 1004.3
20260505180034 62 344 10.4 23.5 0.00 0.00 0.00 78 1004.3
20260505174622 65 331 15.6 26.1 0.00 0.00 0.00 75 1004.0
20260505173039 74 346 12.2 20.9 0.00 0.00 0.00 66 1003.3
20260505171506 77 259 3.5 6.1 0.00 0.00 0.00 68 1002.5
20260505170054 77 254 1.7 4.3 0.00 0.00 0.00 68 1002.4
20260505164504 76 259 1.7 6.1 0.00 0.00 0.00 71 1002.2
20260505163054 75 273 3.5 7.8 0.00 0.00 0.00 72 1002.1
20260505161516 74 225 6.1 8.7 0.00 0.00 0.00 72 1002.1
20260505160107 74 205 2.6 7.0 0.00 0.00 0.00 73 1001.7
20260505153114 74 219 4.3 9.6 0.00 0.00 0.00 73 1001.6
20260505151526 74 184 3.5 8.7 0.00 0.00 0.00 74 1001.4
20260505150121 74 203 1.7 5.2 0.00 0.00 0.00 75 1001.3
20260505124625 71 211 4.3 11.3 0.00 0.00 0.00 78 1000.3
20260505123053 71 211 7.0 13.0 0.00 0.00 0.00 79 1000.0
20260505121502 70 198 6.1 12.2 0.00 0.00 0.00 79 999.8
20260505120056 70 192 7.8 15.6 0.00 0.00 0.00 80 999.5
20260505114502 70 173 7.8 17.4 0.00 0.00 0.00 80 998.9
20260505113057 69 190 7.0 12.2 0.00 0.00 0.00 81 998.7
20260505111522 69 171 7.0 13.0 0.00 0.00 0.00 80 999.0
20260505110137 70 186 5.2 11.3 0.00 0.00 0.00 80 999.0
20260505101503 70 201 6.1 12.2 0.00 0.00 0.00 80 998.9
20260505100056 70 182 6.1 13.0 0.00 0.00 0.00 80 999.2
20260505094518 70 175 6.1 13.9 0.00 0.00 0.00 79 999.1
20260505093112 70 184 7.0 13.9 0.00 0.00 0.00 79 999.2
20260505091530 70 188 5.2 13.0 0.00 0.00 0.00 78 999.2
20260505090124 71 173 5.2 13.0 0.00 0.00 0.00 78 999.2
20260505084559 71 181 5.2 10.4 0.00 0.00 0.00 78 999.2
20260505083001 71 185 5.2 13.0 0.00 0.00 0.00 77 999.3
20260505081601 71 198 4.3 15.6 0.00 0.00 0.00 77 999.4
20260505080021 71 200 7.8 20.0 0.00 0.00 0.00 77 999.7
20260505074612 71 211 7.0 18.2 0.00 0.00 0.00 76 999.7
20260505073036 71 177 8.7 19.1 0.00 0.00 0.00 77 1000.0
20260505071616 71 164 6.1 17.4 0.00 0.00 0.00 77 1000.2